Location: Napa Soda Springs
(38.3907°N, 122.2794°W)
Time: 21:00:44
(UTC+00:00)

METEOR-M - Pass Details

Date: 29 October 2020
Orbit: 815 x 820 km, 98.5° (Epoch: 24 November)

Event Time Altitude Azimuth Distance (km) Brightness Sun altitude
Rises 13:25:23 0° 6° (N) 3,351 7.3 -13.8°
Reaches altitude 10° 13:27:48 10° 1° (N) 2,414 6.5 -13.3°
Maximum altitude 13:32:53 47° 289° (WNW) 1,069 4.3 -12.3°
Drops below altitude 10° 13:37:57 10° 216° (SW) 2,398 6.3 -11.3°
Sets 13:40:21 0° 211° (SSW) 3,326 7.1 -10.9°
